Home > Weather > Durham > Past weeks

Flag for USA Past Weather in Durham, North Carolina, USA — Yesterday and Last 2 Weeks

Now
74 °F

Passing clouds.


Feels Like: 73 °F
Forecast: 72 / 94 °F
Wind: 6 mph from Southwest

Location: Raleigh-Durham International Airport

Current Time: Aug 26, 2016 at 4:44:24 AM

Latest Report: Aug 26, 2016 at 3:51 AM


Visibility: 10 mi

Pressure: 30.08 "Hg

Humidity: 88%

Dew Point: 70 °F

Location of DurhamLocation

Past Weather in Durham — Graph

°F

Durham Temperature Yesterday

Maximum temperature yesterday: 91 °F (at 3:51 PM)
Minimum temperature yesterday: 66 °F (at 4:51 AM)
Average temperature yesterday: 79 °F

High & Low Weather Summary for the Past Weeks

 TemperatureHumidityPressure
High96 °F (Aug 17, 2:51 PM)97% (Aug 20, 1:51 AM)30.31 "Hg (Aug 20, 1:51 AM)
Low65 °F (Aug 23, 6:51 AM)35% (Aug 22, 3:51 PM)29.80 "Hg (Aug 21, 4:51 AM)
Average82 °F70%30.08 "Hg
* Reported Aug 11 2:51 AM — Aug 26 2:51 AM, Durham, Weather by CustomWeather, © 2016

Note: Actual official high and low records may vary slightly from our data, if they occured in-between our weather recording intervals... More about our weather records

Advertising

Durham Weather History for the Previous 24 Hours

Scroll right to see more
 ConditionsComfort  
Time TempWeatherWind HumidityBarometerVisibility
2:51 AM
Fri, Aug 26
74 °FPassing clouds.6 mph85%30.08 "Hg10 mi
1:51 AM77 °FPassing clouds.No wind77%30.08 "Hg10 mi
12:51 AM79 °FPassing clouds.6 mph72%30.06 "Hg10 mi
11:51 PM
Thu, Aug 25
79 °FPassing clouds.No wind72%30.06 "Hg10 mi
10:51 PM80 °FPassing clouds.3 mph69%30.07 "Hg10 mi
9:51 PM81 °FPassing clouds.5 mph67%30.07 "Hg10 mi
8:51 PM82 °FPassing clouds.5 mph67%30.06 "Hg10 mi
7:51 PM84 °FPartly sunny.3 mph59%30.06 "Hg10 mi
6:51 PM88 °FScattered clouds.No wind55%30.06 "Hg10 mi
5:51 PM90 °FScattered clouds.5 mph48%30.06 "Hg10 mi
4:51 PM91 °FPartly sunny.3 mph44%30.07 "Hg10 mi
3:51 PM91 °FPartly sunny.5 mph45%30.07 "Hg10 mi
2:51 PM89 °FPartly sunny.5 mph46%30.09 "Hg10 mi
1:51 PM89 °FPartly sunny.3 mph46%30.12 "Hg10 mi
12:51 PM88 °FPartly sunny.10 mph45%30.15 "Hg10 mi
11:51 AM86 °FPartly sunny.8 mph48%30.16 "Hg10 mi
10:51 AM83 °FScattered clouds.8 mph51%30.18 "Hg10 mi
9:51 AM79 °FScattered clouds.7 mph62%30.17 "Hg10 mi
8:51 AM75 °FPartly sunny.5 mph76%30.17 "Hg10 mi
7:51 AM70 °FPartly sunny.No wind87%30.18 "Hg10 mi
6:51 AM67 °FPassing clouds.No wind90%30.17 "Hg10 mi
5:51 AM68 °FPassing clouds.No wind84%30.16 "Hg10 mi
4:51 AM66 °FPassing clouds.No wind90%30.16 "Hg10 mi
Weather by CustomWeather, © 2016

See weather overviewHow to use our weather pages